User: anonymous   Login
Location: Unspecified
(0.0000°N, 0.0000°E)
Time: 03:04:12
(UTC+00:00)
Language:

COSMOS 2501 (GLONASS) - Orbit

View from above orbital plane
View from above orbital plane
View from above satellite
View from above satellite

Ground track
Ground track

The orbit data is extracted from the following two-line orbital elements,

1 40315U 14075A   19316.28220644 -.00000006  00000-0  00000+0 0  9994
2 40315  63.9808 274.4799 0017197 212.0737 262.4828  2.13098508 38524
Epoch (UTC): 12 November 2019 06:46:22
Eccentricity: 0.0017197
inclination: 63.9808°
perigee height: 19086 km
apogee height: 19174 km
right ascension of ascending node: 274.4799°
argument of perigee: 212.0737°
revolutions per day: 2.13098508
mean anomaly at epoch: 262.4828°
orbit number at epoch: 3852

The dashed part of the orbit path shows where the satellite is in the earth's shadow,  

DLR